{"data":{"norad_id":62385,"intl_designator":"2024-247J","name":"BANDWAGON-2 OBJECT J","alt_names":[],"object_type":"PAYLOAD","status":"ACTIVE","operator":null,"country":"TBD","launch_date":"2024-12-21","launch_site_code":"AFWTR","launch_vehicle":null,"mission":null,"orbit_class":"UNKNOWN","rcs_meters":null,"size_class":null,"mass_kg":null,"dimensions":null,"purposes":[],"wikipedia_slug":null,"has_3d_model":false,"image_url":null,"decayed_at":null,"tle_current":{"epoch":"2026-09-21T03:24:47.602368Z","epoch_age_seconds":256497,"freshness":"STALE","line1":"1 62385U 24247J   26264.14221762  .00050099  00000+0  60466-3 0  9995","line2":"2 62385  44.9985  65.4373 0007243 250.5650 109.4463 15.60013693 98392","mean_motion":15.60013693,"eccentricity":0.0007243,"inclination_deg":44.9985,"raan_deg":65.4373,"arg_perigee_deg":250.565,"mean_anomaly_deg":109.4463,"bstar":0.00060466,"rev_number":9839,"period_min":92.306882078118,"perigee_km":382.71705361497,"apogee_km":392.51792556859,"semimajor_km":6765.7544895918,"source":"CELESTRAK","updated_at":"2026-09-23T09:00:21.392825Z"}}}